Aérodrome :
LOGIN :

S'inscrire | Disclaimer

   EN    FR    IT 

 










Légende :    VFR   VFR Marginal   IFR   IFR Intensif   IFR Très Intensif
Visi : 
Plafond : 
>= 8 km
>= 3000ft
5 à 8 km
1000 à 3000 ft
1500m à 5 km
500 à 1000 ft
800 à 1500m
200 à 500 ft
< 800m
< 200 ft
Symboles :   Orages  Brouillard  Fortes neiges  Fortes précipitations  Vent > 20 kt
SIGMETs :   Divers  Orages  Givrage  Turbulence  Onde Orograph.  Cendres Volcan.






- Altitude de l'aérodrome : 404 ft
- Code IATA : WRO


EPWR - Wroclaw

DERNIER METAR :
  • 011430Z 27011KT 240V300 CAVOK 08/M06 Q1018

METARs EXPIRÉS :
  • 011400Z 23008KT 190V260 CAVOK 07/M07 Q1018
  • 011330Z 25008KT 190V310 CAVOK 07/M07 Q1019
  • 011300Z 26011KT 200V310 CAVOK 07/M07 Q1019
  • 011230Z 24011KT 210V340 CAVOK 07/M07 Q1020
  • 011200Z 29008KT 260V340 CAVOK 06/M08 Q1020

TAF TAF EPWR
Valide du 01 à 15h jusqu'au 02 à 15h UTC


011430Z 0115/0215 23008KT CAVOK



MET'MAP, la Météo Aéronautique d'un coup d'oeil ! - Copyright ORBIFLY Décembre 2007 - Disclaimer

ORBIFLY MET'MAP TEAM :

Programmation & Développement : Alexandra Zaïnal
Sur une idée originale de : Baudouin d'Aumeries
Assistance à la programmation : Marc-Olivier Méhu
Soutien technique & logistique : Manuel Goepfert

Contact : metmap@orbifly.com




SOURCES & CREDITS :

   NOAA